Find Starlink 34039

NORAD ID: 63946 Int'l Des: 2025-098 Owner: SPXS Country: US Constellation: starlink operational
LEOCIRCULAR

Live Position

Loading 3D Globe...

About Starlink 34039

Description loading...

Upcoming Passes

Passes for default location (London). Set your location on the main map for personalized predictions.

Altitude History

Loading altitude history...

Two-Line Element Set

1 63946U 25098W 26139.94678628 .00004073 00000-0 34887-3 0 9990
2 63946 70.0012 94.8919 0002957 265.2146 94.8676 14.98341900 57224
Epoch: May 19, 2026 • Age: 8 hours

Current Status

Altitude 587.4 km
Velocity 7.57 km/s
Sub-Earth Point -45.03°S, 97.14°E
Launch Date May 13, 2025
Age 1 years
Type internet

Technical Details

Classification Payload
Mass 575.00 kg
Dry Mass 530.00 kg
Total Mass 575.00 kg
Length 0.30 m
Diameter 4.10 m
Span 29.00 m
Shape Box + pan
Manufacturer SPXS
Bus Type Starlink V2MO
Phase Status In Orbit
Owner/State SPXS/US

Most Searched